Terminal Aerodrome Forecast
Issued by NWS

Home | Current Version | Previous Version | Text Only | Print | Product List | Glossary On
Versions: 1 2 3 4 5 6 7 8 9 10 11 12 13 14 15 16 17
000
FTUS45 KTFX 011700
TAFGTF
TAF
KGTF 011720Z 0118/0218 26011G18KT P6SM BKN120
     FM020100 22007KT P6SM FEW150=

USA.gov is the U.S. government's official web portal to all federal, state and local government web resources and services.